KUIPER-00244

导读

KUIPER-00244(NORAD编号68583)是亚马逊柯伊伯项目(Project Kuiper)低轨卫星互联网星座中的一颗卫星。该项目计划部署3236颗卫星,为全球提供高速低延迟卫星互联网服务。这颗卫星属于2025年9月联合发射联盟ULA Atlas V火箭发射的27颗卫星之一,发射后先部署到465公里轨道,随后将提升至预定工作轨道。当前柯伊伯项目已完成五次发射,卫星总数达到129颗,需在2026年7月前完成一半卫星发射以满足FCC要求,该卫星目前在轨运行,助力项目技术验证与星座组网推进。

基本信息
目录编号:
68583
目录名称:
KUIPER-00244
国际标识:
2026-072L
轨道中心:
EARTH
卫星名称:
KUIPER-00244
卫星全名:
KUIPER-00244
卫星状态:
在轨 (已飞行70 天)
发射日期:
2026-04-04 UTC
国别 :
美国 (US)
星等 :
--
轨道信息
数据来源 国际轨道数据
星历时间: 2026-06-12T14:00:03+0800
18小时前
查看轨道信息
半长轴: 6944.796km
偏心率: 0.0003245
轨道倾角: 51.895°
近地点辐角 46.110°
升交点赤经 202.926°
平近点角 285.592°
近地点: 564.405km
远地点: 568.913km
周期: 95.995分钟
每日圈数: 15.000772
详细信息
使用方式:
暂无
2D轨道图
3D轨道图
轨道高度分析图
轨道倾角分析图
轨道综合分析图
查看轨道综合分析图